Wind_Speed
21 23 24 23 23 22 23 23 21 19 18 18 17 18 20 23 22 13 4 3 6 11 3 6 6 4 9 4 4 3 4 1 1 2 3 8 4 6 5 14 2 4 7 10 26
22 23 24 24 24 24 24 25 23 20 18 17 16 16 18 22 19 10 7 7 8 12 11 8 4 9 2 2 3 4 4 6 5 5 3 3 5 8 5 9 3 9 17 26 27
24 24 24 25 25 25 25 27 27 21 18 17 16 15 16 15 5 7 2 13 12 9 4 4 6 4 4 1 3 3 2 2 5 1 5 1 6 1 14 6 8 17 19 22 24
24 25 26 26 26 27 28 27 29 24 18 16 15 14 13 4 4 1 6 4 14 7 4 2 2 4 5 5 1 4 4 1 6 3 4 2 1 7 14 6 14 17 23 22 18
25 26 27 27 28 29 31 29 31 24 18 15 13 11 3 3 8 3 2 7 11 10 7 3 2 3 4 6 7 2 5 8 8 5 4 5 5 0 12 13 14 15 21 21 18
25 27 28 30 30 31 33 31 31 23 15 12 9 6 2 3 3 3 4 4 5 8 7 6 4 4 4 6 3 4 7 6 5 2 4 5 3 5 5 15 15 17 20 19 19
26 29 31 32 34 35 33 32 29 18 11 9 6 1 1 12 3 7 0 3 3 4 4 5 6 4 4 4 3 8 5 4 3 5 3 4 5 3 10 13 15 13 18 17 19
29 30 32 34 35 36 36 34 23 9 5 5 2 2 7 4 6 12 14 11 10 11 8 6 8 4 4 4 3 4 3 1 3 3 3 4 4 6 9 15 13 10 8 12 15
29 31 34 36 38 38 36 28 9 0 2 2 3 2 9 10 6 12 16 6 5 2 4 3 5 4 4 5 4 3 2 4 2 6 3 2 2 6 10 12 12 12 11 8 8
30 33 35 37 35 41 28 11 4 2 2 2 1 2 6 1 5 5 13 9 1 3 4 4 5 4 4 4 4 4 3 4 4 7 3 3 4 5 9 10 13 12 12 12 11
31 33 36 37 40 30 21 2 4 3 1 6 7 5 6 10 7 3 9 7 3 6 3 3 4 7 12 7 6 5 3 5 3 6 4 7 4 8 8 12 13 12 13 13 14
32 35 37 37 38 9 23 4 2 3 10 11 14 8 11 3 4 4 11 6 5 5 2 6 5 9 7 10 4 3 2 8 2 6 5 6 9 6 15 16 18 16 14 14 12
32 35 37 37 22 9 18 3 14 13 3 8 5 6 5 10 7 7 8 6 6 6 5 6 6 5 4 4 5 2 5 6 5 1 3 3 8 2 5 5 11 15 15 13 13
32 34 36 39 5 25 11 18 27 1 4 7 4 7 6 7 4 9 10 6 2 10 9 4 4 6 4 6 7 6 10 10 9 2 3 2 4 6 5 8 9 14 14 13 11
31 33 34 32 19 9 11 24 19 3 4 1 3 2 3 8 2 3 7 6 8 6 7 8 7 5 4 10 6 11 10 14 12 5 3 2 3 7 4 7 9 14 11 12 15
32 32 36 17 18 16 17 22 3 5 5 5 4 5 5 1 2 5 4 6 4 5 3 6 1 6 10 8 11 1 6 8 5 4 2 6 6 7 4 11 7 7 12 10 13
33 34 33 22 6 12 18 4 5 3 6 6 3 4 2 3 1 1 2 4 5 5 2 5 3 3 2 1 4 6 7 3 3 2 6 3 4 10 7 8 9 11 13 10 13
33 33 26 25 19 6 5 5 2 4 6 5 4 3 6 5 4 3 3 3 2 5 4 5 6 6 4 8 9 7 9 6 6 4 5 2 6 7 7 6 8 8 5 8 10
35 21 19 8 6 12 5 2 6 5 5 8 7 4 2 4 0 3 8 8 9 8 8 5 5 3 4 5 9 4 3 4 7 3 2 3 7 6 8 3 6 9 7 8 9
22 12 11 2 17 8 4 5 4 4 6 5 3 4 2 4 5 6 7 5 6 10 5 4 1 4 3 3 3 6 7 3 4 3 2 5 4 4 5 6 3 6 7 5 6
6 4 5 9 10 5 3 7 5 7 4 4 1 3 7 4 7 4 6 5 8 6 5 5 4 6 4 2 9 2 3 6 6 5 5 2 6 5 6 3 7 6 5 7 10
6 3 3 18 3 1 3 6 3 2 2 8 4 9 5 2 4 8 10 9 9 10 10 7 5 4 12 4 4 5 6 6 5 4 1 4 5 1 3 6 5 10 9 4 5
3 3 1 6 1 2 5 4 4 5 4 3 4 6 5 4 3 8 8 16 10 9 10 8 1 2 11 6 3 4 4 5 5 4 6 6 5 2 7 4 8 14 6 2 6
2 3 4 3 0 2 2 5 4 7 12 7 6 7 3 5 6 6 5 3 10 13 11 10 4 7 7 8 2 2 5 5 6 5 6 5 5 5 5 9 10 6 7 8 7
0 3 1 3 1 3 3 3 5 6 4 3 5 5 3 5 5 5 3 2 4 13 6 7 5 5 6 1 1 3 3 7 6 6 7 7 9 8 9 10 6 4 9 9 8
0 2 4 3 4 4 0 2 2 4 4 6 5 11 9 6 8 6 3 2 4 2 5 1 3 3 6 7 8 7 9 5 3 4 6 7 3 6 2 7 4 6 10 7 7
3 3 1 3 4 1 1 4 6 7 8 12 8 7 9 12 10 6 6 3 7 8 4 4 6 4 1 3 4 7 7 3 4 3 7 10 7 6 1 4 4 2 4 9 8
Wind_Direction
4 3 1 1 359 356 357 354 348 342 340 337 337 336 333 328 323 314 262 176 164 158 161 152 94 63 359 25 116 158 57 90 270 0 315 173 126 166 64 140 169 170 128 137 152
1 0 357 357 357 354 353 352 348 341 335 333 333 334 333 329 325 282 237 198 171 159 152 166 126 153 131 347 338 61 130 222 223 170 155 108 145 130 117 158 78 84 102 135 150
2 359 355 354 354 352 350 350 349 340 332 330 330 333 333 331 340 258 319 222 190 182 201 141 129 152 77 46 228 112 174 212 272 168 62 345 98 179 140 200 173 146 142 153 157
359 357 356 353 350 350 347 346 347 338 331 325 327 332 334 346 208 305 17 159 182 175 198 84 90 111 135 178 108 75 302 188 300 78 3 283 46 121 164 203 163 152 153 158 167
357 356 354 352 349 347 344 341 343 333 326 322 325 338 0 8 251 212 304 132 169 180 175 135 75 135 168 205 107 194 173 270 289 243 276 272 113 271 197 146 133 138 155 166 175
355 354 352 350 347 343 340 336 337 329 322 318 324 334 67 266 257 270 219 164 165 181 132 157 152 189 103 57 106 195 135 215 225 187 283 307 4 105 106 141 139 144 163 172 182
354 353 350 346 343 340 336 332 330 322 317 316 321 31 106 235 132 130 178 206 197 180 137 195 144 76 142 107 129 131 130 216 211 184 232 285 29 39 141 148 155 161 168 182 189
351 349 345 344 342 338 331 331 325 314 312 322 354 110 246 259 274 257 256 261 249 261 239 226 166 96 77 130 42 72 53 45 247 270 324 71 273 121 154 158 173 171 188 177 188
348 346 344 342 340 336 330 332 337 2 342 41 94 100 266 309 268 248 224 223 232 219 233 167 142 112 59 92 11 30 209 223 304 203 147 129 160 158 168 174 181 185 189 203 209
347 345 342 341 340 333 335 337 49 90 76 55 79 5 285 27 301 287 202 204 213 353 27 104 68 93 58 81 219 209 218 251 217 198 237 193 206 172 170 179 196 200 195 196 207
345 343 340 339 340 338 359 5 10 7 39 249 234 245 286 307 312 222 176 122 79 48 161 32 115 169 188 186 204 138 212 275 162 195 129 217 259 226 180 186 200 206 211 207 210
342 342 340 337 338 353 351 65 138 323 297 242 244 249 256 356 304 304 163 127 121 182 99 26 209 230 134 166 183 225 275 281 261 176 161 192 252 214 192 196 195 201 211 212 214
340 341 339 338 338 344 341 51 334 344 248 292 204 221 193 146 205 260 136 141 131 145 168 158 228 199 148 152 143 217 195 274 208 134 332 60 328 150 218 192 193 209 212 211 212
336 338 339 339 345 333 317 339 335 170 30 277 257 263 154 149 258 219 170 136 97 183 148 212 235 180 175 232 138 248 187 228 238 168 212 99 276 286 237 195 191 200 198 200 198
331 334 334 339 307 305 314 330 338 104 346 179 222 155 165 146 241 180 182 61 160 170 117 240 172 157 180 227 141 235 163 206 233 85 27 19 63 268 0 258 206 224 212 198 193
325 326 328 328 305 293 326 330 4 40 259 330 147 163 115 146 301 353 121 67 142 130 352 237 197 152 212 226 177 79 63 36 60 99 353 196 158 282 201 220 233 209 218 186 186
320 318 315 298 250 303 325 0 43 155 326 339 210 150 105 164 262 106 144 145 158 110 270 323 242 256 166 134 31 81 77 19 9 0 225 86 120 245 262 238 213 213 217 190 179
319 316 309 283 269 258 320 52 169 254 266 298 331 53 164 152 251 135 108 225 221 97 121 160 318 182 180 186 191 182 157 149 184 180 246 138 234 258 281 233 228 233 240 157 173
324 320 304 297 230 178 85 90 215 219 303 339 331 96 315 223 223 155 195 212 198 163 165 141 268 289 217 182 141 200 192 182 104 12 75 243 297 325 345 10 342 253 217 185 186
324 318 291 256 153 134 82 228 246 241 343 3 326 25 261 223 162 164 188 213 209 183 160 190 259 221 275 153 53 161 161 72 18 130 228 285 280 235 314 342 16 33 5 345 250
330 346 326 171 151 55 173 226 263 258 332 324 280 315 236 231 198 206 225 248 195 165 125 133 107 280 24 209 191 119 127 46 110 121 165 215 264 200 268 306 322 16 31 80 90
348 343 15 152 55 45 180 198 259 239 218 254 225 201 245 264 249 212 218 218 162 148 166 201 143 219 235 214 227 131 153 131 121 229 168 155 272 123 242 161 81 309 247 99 97
350 274 282 204 170 275 296 290 255 268 256 270 276 236 215 243 236 204 211 237 133 155 165 178 225 13 330 352 348 153 153 118 113 87 182 142 254 49 5 127 228 227 95 40 54
350 342 315 45 132 142 331 277 317 297 288 227 246 232 250 249 231 268 242 228 181 183 122 105 127 155 190 215 196 201 140 161 128 122 172 216 189 200 193 211 219 192 100 73 57
4 261 206 297 278 310 237 274 322 323 264 270 300 225 357 291 297 226 166 138 47 139 102 125 155 169 232 157 224 72 9 172 178 174 151 213 196 192 191 209 216 109 87 77 49
175 354 346 281 295 297 64 275 315 280 259 272 209 288 304 238 220 258 176 128 160 45 111 170 168 132 30 137 111 71 28 48 116 137 76 103 193 213 260 310 287 125 126 117 122
324 334 104 288 322 353 218 334 310 341 256 245 278 305 293 265 214 217 180 190 161 150 133 96 125 99 198 282 351 24 342 343 87 334 143 155 223 131 252 305 322 277 145 143 147
Height
804 800 796 793 789 786 783 781 778 775 772 769 767 764 760 755 750 747 746 745 745 747 748 750 755 754 750 752 750 756 794 804 792 788 784 767 774 772 768 776 776 777 785 790 800
804 801 797 793 789 786 783 780 776 773 771 768 766 763 760 755 750 745 743 742 744 747 750 752 757 756 759 756 757 767 796 788 770 769 773 768 770 773 780 784 784 786 786 794 802
804 800 797 793 789 785 781 778 775 772 769 767 765 763 760 756 754 740 739 739 744 746 748 752 752 754 764 760 762 766 786 769 766 763 763 769 770 767 782 793 783 788 792 796 801
804 800 796 792 788 784 780 776 773 770 767 765 763 762 759 758 771 738 737 737 742 747 748 749 752 760 771 775 767 780 769 768 766 766 766 771 765 772 773 775 772 778 785 795 802
803 799 796 791 787 783 779 775 771 767 764 763 762 760 760 761 752 739 739 740 742 746 748 750 754 758 772 767 773 777 775 771 766 765 767 762 767 771 773 768 774 782 790 796 800
803 799 795 790 786 782 777 772 768 764 762 760 760 760 760 768 739 738 739 740 741 744 747 748 751 750 763 768 775 768 772 774 771 770 769 771 767 765 774 770 779 786 791 796 799
803 798 794 789 784 779 774 769 764 761 759 758 758 758 760 749 738 737 738 739 740 742 744 745 746 751 756 773 766 773 789 781 775 776 776 768 780 783 774 774 781 786 793 795 797
802 797 793 787 781 775 770 764 759 757 757 757 757 758 757 736 736 735 736 737 739 741 743 744 745 750 760 761 768 782 788 804 780 778 775 773 805 783 776 778 784 784 787 792 795
801 796 791 785 779 772 765 759 755 755 756 756 757 757 754 734 734 733 734 735 736 740 741 743 745 758 765 784 797 795 811 803 789 774 777 781 797 780 775 779 786 784 783 786 788
800 795 789 783 776 768 761 756 755 756 756 757 758 762 739 737 732 731 732 735 736 736 742 746 761 779 789 798 823 807 804 795 796 781 779 788 786 778 777 780 784 783 782 783 784
798 793 787 781 775 767 761 757 761 762 758 755 750 748 739 733 729 727 730 734 738 747 766 758 778 795 786 783 775 784 791 794 783 771 781 789 787 783 776 777 782 782 782 781 781
798 792 786 779 772 767 764 766 770 775 770 743 740 739 735 736 743 729 729 742 750 769 762 778 789 768 767 773 774 778 789 793 777 768 775 782 784 773 771 768 771 775 779 777 777
797 791 784 777 770 768 767 767 767 765 771 743 734 733 732 733 741 735 728 738 754 767 770 787 771 758 767 775 785 787 795 791 788 776 771 778 790 779 770 767 766 766 767 771 774
796 791 785 777 774 770 765 764 762 760 788 757 738 727 726 726 738 721 723 733 749 766 773 773 757 761 771 777 779 799 776 773 775 793 812 779 830 791 775 773 768 762 764 766 770
794 790 786 783 780 774 767 762 758 759 810 738 733 717 720 733 730 726 721 730 756 757 765 772 763 767 772 767 766 780 766 772 770 809 802 802 822 794 782 778 772 761 758 758 760
791 788 783 781 777 768 765 761 759 797 804 744 726 732 735 731 731 726 726 724 735 754 754 759 743 753 756 750 758 752 774 786 798 809 835 807 813 805 790 767 754 754 750 753 755
786 782 780 777 770 766 765 763 800 811 750 747 739 732 738 744 739 735 741 752 767 785 780 765 758 744 739 756 752 772 795 840 836 839 839 807 818 792 759 750 744 743 742 746 749
780 774 769 765 764 766 767 782 804 773 765 737 736 741 750 744 744 744 752 764 753 763 793 793 794 756 741 753 768 776 787 827 838 851 827 805 813 781 749 735 733 734 735 742 745
775 768 762 757 756 763 774 804 791 776 752 751 742 749 751 742 740 746 759 761 751 754 780 797 784 745 738 735 747 768 784 774 817 824 826 812 788 759 752 745 742 740 737 742 740
775 769 760 756 757 761 782 796 779 759 750 749 762 751 761 751 750 753 758 736 744 741 739 762 782 750 739 733 741 752 759 794 812 826 826 817 801 797 774 761 749 748 745 743 741
777 775 758 758 760 769 792 791 770 752 747 755 756 758 757 748 749 756 746 731 727 739 738 755 770 766 744 755 762 766 775 792 798 814 832 831 810 784 782 771 772 755 750 742 740
781 782 760 762 776 786 785 773 756 752 745 750 748 751 746 740 746 752 749 728 711 728 749 747 774 786 772 740 736 745 761 777 808 804 815 814 804 770 773 760 758 769 759 742 736
789 783 763 764 784 783 771 763 756 755 750 746 743 735 730 738 748 738 729 697 710 722 738 742 775 797 778 756 739 741 754 767 783 795 813 813 802 764 767 757 758 782 751 750 744
791 788 772 766 771 769 771 766 762 743 743 737 735 730 732 735 732 727 722 697 700 706 715 726 770 774 794 769 756 749 748 759 767 798 803 798 780 771 768 767 762 753 747 745 743
793 788 783 783 777 775 770 761 761 759 739 732 733 730 732 737 728 725 710 702 702 706 719 726 756 758 756 753 744 749 750 753 759 763 774 770 780 767 763 757 749 744 741 743 747
794 792 786 784 778 772 767 759 760 755 752 742 740 726 727 736 721 721 712 708 710 704 715 730 756 744 758 744 745 754 749 750 751 755 760 770 769 756 756 755 747 744 742 749 749
791 790 790 782 777 773 770 765 759 754 738 730 728 732 727 708 700 695 697 698 701 712 726 733 752 767 767 751 749 770 755 753 754 753 756 771 755 757 764 760 754 751 749 751 750